timestamp,surface_pressure_avg,surface_temp_avg,battery_voltage,lat,long
2017-10-11 00:00:00+00:00,268.1014,12.6,12.97,47.84626,-54.09684
2017-10-11 00:10:00+00:00,270.4164,12.6,12.97,47.84626,-54.09684
2017-10-11 00:20:00+00:00,275.9814,12.65,12.97,47.84626,-54.09684
2017-10-11 00:30:00+00:00,282.7264,12.69,12.97,47.84626,-54.09684
2017-10-11 00:40:00+00:00,289.0447,12.7,13.05,47.84626,-54.09684
2017-10-11 00:50:00+00:00,290.1747,12.7,13.05,47.84626,-54.09684
2017-10-11 01:00:00+00:00,296.623,12.7,12.97,47.84626,-54.09684
2017-10-11 01:10:00+00:00,303.8897,12.74,12.89,47.84626,-54.09684
2017-10-11 01:20:00+00:00,312.6297,12.74,12.97,47.84626,-54.09684
2017-10-11 01:30:00+00:00,320.9064,12.6,12.97,47.84626,-54.09684
2017-10-11 01:40:00+00:00,327.5797,12.6,12.97,47.84626,-54.09684
2017-10-11 01:50:00+00:00,327.6296,12.6,12.97,47.84626,-54.09684
2017-10-11 02:00:00+00:00,334.5713,12.6,12.97,47.84626,-54.09684
2017-10-11 02:10:00+00:00,339.8746,12.6,12.89,47.84626,-54.09684
2017-10-11 02:20:00+00:00,343.0995,12.6,12.97,47.84626,-54.09684
2017-10-11 02:30:00+00:00,347.1696,12.63,12.97,47.84626,-54.09684
2017-10-11 02:40:00+00:00,350.0213,12.6,12.97,47.84626,-54.09684
2017-10-11 02:50:00+00:00,352.5545,12.6,12.97,47.84626,-54.09684
2017-10-11 03:00:00+00:00,352.8113,12.65,12.97,47.84626,-54.09684
2017-10-11 03:10:00+00:00,354.2162,12.67,12.89,47.84626,-54.09684
2017-10-11 03:20:00+00:00,355.1496,12.65,12.97,47.84626,-54.09684
2017-10-11 03:30:00+00:00,351.278,12.69,12.97,47.84626,-54.09684
2017-10-11 03:40:00+00:00,351.1163,12.7,12.97,47.84626,-54.09684
2017-10-11 03:50:00+00:00,353.0646,12.7,12.97,47.84626,-54.09684
2017-10-11 04:00:00+00:00,350.2762,12.7,12.89,47.84626,-54.09684
2017-10-11 04:10:00+00:00,344.6813,12.7,12.89,47.84626,-54.09684
2017-10-11 04:20:00+00:00,340.9146,12.7,12.97,47.84626,-54.09684
2017-10-11 04:30:00+00:00,339.8247,12.71,12.97,47.84626,-54.09684
2017-10-11 04:40:00+00:00,335.9329,12.78,12.97,47.84626,-54.09684
2017-10-11 04:50:00+00:00,333.6513,12.79,12.97,47.84626,-54.09684
2017-10-11 05:00:00+00:00,327.6446,12.8,12.89,47.84626,-54.09684
2017-10-11 05:10:00+00:00,321.5647,12.8,12.81,47.84626,-54.09684
2017-10-11 05:20:00+00:00,316.8929,12.8,12.89,47.84626,-54.09684
2017-10-11 05:30:00+00:00,310.5547,12.83,12.89,47.84626,-54.09684
2017-10-11 05:40:00+00:00,302.3763,12.9,12.97,47.84626,-54.09684
2017-10-11 05:50:00+00:00,293.2797,12.92,12.97,47.84626,-54.09684
2017-10-11 06:00:00+00:00,286.4314,13.0,12.89,47.84626,-54.09684
2017-10-11 06:10:00+00:00,279.3964,12.8,12.81,47.84626,-54.09684
2017-10-11 06:20:00+00:00,271.1414,12.9,12.89,47.84626,-54.09684
2017-10-11 06:30:00+00:00,259.8364,12.99,12.89,47.84626,-54.09684
2017-10-11 06:40:00+00:00,246.4264,13.02,12.89,47.84626,-54.09684
2017-10-11 06:50:00+00:00,237.2381,12.9,12.97,47.84626,-54.09684
2017-10-11 07:00:00+00:00,226.9648,12.8,12.89,47.84626,-54.09684
2017-10-11 07:10:00+00:00,215.1448,12.9,12.81,47.84626,-54.09684
2017-10-11 07:20:00+00:00,207.8065,12.9,12.89,47.84626,-54.09684
2017-10-11 07:30:00+00:00,202.9498,12.9,12.89,47.84626,-54.09684
2017-10-11 07:40:00+00:00,196.6848,12.99,12.89,47.84626,-54.09684
2017-10-11 07:50:00+00:00,191.8831,13.0,12.89,47.84626,-54.09684
2017-10-11 08:00:00+00:00,189.6581,13.0,12.89,47.84626,-54.09684
2017-10-11 08:10:00+00:00,186.4548,13.0,12.81,47.84626,-54.09684
2017-10-11 08:20:00+00:00,183.6365,13.0,12.89,47.84626,-54.09684
2017-10-11 08:30:00+00:00,185.5164,12.99,12.89,47.84626,-54.09684
2017-10-11 08:40:00+00:00,185.2382,12.99,12.89,47.84626,-54.09684
2017-10-11 08:50:00+00:00,185.4265,12.99,12.89,47.84626,-54.09684
2017-10-11 09:00:00+00:00,187.6848,13.0,12.89,47.84626,-54.09684
2017-10-11 09:10:00+00:00,189.7531,12.98,12.81,47.84626,-54.09684
2017-10-11 09:20:00+00:00,192.8748,12.9,12.89,47.84626,-54.09684
2017-10-11 09:30:00+00:00,197.3682,12.95,12.89,47.84626,-54.09684
2017-10-11 09:40:00+00:00,197.9731,12.9,12.89,47.84626,-54.09684
2017-10-11 09:50:00+00:00,199.0264,12.9,12.89,47.84626,-54.09684
2017-10-11 10:00:00+00:00,207.8881,12.9,12.89,47.84626,-54.09684
2017-10-11 10:10:00+00:00,210.6648,12.9,12.97,47.84626,-54.09684
2017-10-11 10:20:00+00:00,209.3698,12.9,13.29,47.84626,-54.09684
2017-10-11 10:30:00+00:00,214.7581,12.9,13.68,47.84626,-54.09684
2017-10-11 10:40:00+00:00,217.5164,12.89,13.92,47.84626,-54.09684
2017-10-11 10:50:00+00:00,217.9714,12.88,14.16,47.84626,-54.09684
2017-10-11 11:00:00+00:00,220.7498,12.84,13.6,47.84626,-54.09684
2017-10-11 11:10:00+00:00,226.7465,12.84,13.84,47.84626,-54.09684
2017-10-11 11:20:00+00:00,230.9065,12.8,13.44,47.84626,-54.09684
2017-10-11 11:30:00+00:00,234.2547,12.8,13.53,47.84626,-54.09684
2017-10-11 11:40:00+00:00,237.2848,12.83,13.6,47.84626,-54.09684
2017-10-11 11:50:00+00:00,243.8015,12.82,13.6,47.84626,-54.09684
2017-10-11 12:00:00+00:00,246.5214,12.8,13.53,47.84626,-54.09684
2017-10-11 12:10:00+00:00,248.0214,12.7,13.6,47.84626,-54.09684
2017-10-11 12:20:00+00:00,254.0098,12.76,13.53,47.84626,-54.09684
2017-10-11 12:30:00+00:00,263.9681,12.79,13.53,47.84626,-54.09684
2017-10-11 12:40:00+00:00,271.5214,12.8,13.53,47.84626,-54.09684
2017-10-11 12:50:00+00:00,275.7714,12.79,13.53,47.84626,-54.09684
2017-10-11 13:00:00+00:00,280.453,12.59,13.76,47.84626,-54.09684
2017-10-11 13:10:00+00:00,290.6097,12.43,13.44,47.84626,-54.09684
2017-10-11 13:20:00+00:00,298.1997,12.56,13.44,47.84626,-54.09684
2017-10-11 13:30:00+00:00,306.8063,12.53,13.44,47.84626,-54.09684
2017-10-11 13:40:00+00:00,313.3181,12.5,13.53,47.84626,-54.09684
2017-10-11 13:50:00+00:00,322.598,12.5,13.44,47.84626,-54.09684
2017-10-11 14:00:00+00:00,332.468,12.47,13.44,47.84626,-54.09684
2017-10-11 14:10:00+00:00,342.993,12.43,13.53,47.84626,-54.09684
2017-10-11 14:20:00+00:00,346.5613,12.49,13.6,47.84626,-54.09684
2017-10-11 14:30:00+00:00,351.3646,12.5,13.53,47.84626,-54.09684
2017-10-11 14:40:00+00:00,359.8763,12.5,13.53,47.84626,-54.09684
2017-10-11 14:50:00+00:00,363.8996,12.49,13.44,47.84626,-54.09684
2017-10-11 15:00:00+00:00,361.4813,12.48,13.44,47.84626,-54.09684
2017-10-11 15:10:00+00:00,364.1447,12.48,13.44,47.84626,-54.09684
2017-10-11 15:20:00+00:00,371.5763,12.46,13.44,47.84626,-54.09684
2017-10-11 15:30:00+00:00,376.2246,12.49,13.92,47.84626,-54.09684
2017-10-11 15:40:00+00:00,375.2363,12.49,13.44,47.84626,-54.09684
2017-10-11 15:50:00+00:00,377.5213,12.46,13.44,47.84626,-54.09684
2017-10-11 16:00:00+00:00,382.9479,12.47,13.44,47.84626,-54.09684
2017-10-11 16:10:00+00:00,379.913,12.48,13.6,47.84626,-54.09684
2017-10-11 16:20:00+00:00,374.0245,12.49,13.44,47.84626,-54.09684
2017-10-11 16:30:00+00:00,373.4646,12.45,13.44,47.84626,-54.09684
2017-10-11 16:40:00+00:00,373.1963,12.46,13.6,47.84626,-54.09684
2017-10-11 16:50:00+00:00,365.2013,12.48,13.44,47.84626,-54.09684
2017-10-11 17:00:00+00:00,360.8729,12.47,13.68,47.84626,-54.09684
2017-10-11 17:10:00+00:00,363.8896,12.46,13.6,47.84626,-54.09684
2017-10-11 17:20:00+00:00,360.5029,12.48,13.84,47.84626,-54.09684
2017-10-11 17:30:00+00:00,350.5979,12.44,13.44,47.84626,-54.09684
2017-10-11 17:40:00+00:00,349.678,12.41,13.84,47.84626,-54.09684
2017-10-11 17:50:00+00:00,348.7013,12.4,13.53,47.84626,-54.09684
2017-10-11 18:00:00+00:00,341.6647,12.42,13.68,47.84626,-54.09684
2017-10-11 18:10:00+00:00,330.6013,12.4,13.6,47.84626,-54.09684
2017-10-11 18:20:00+00:00,324.4963,12.4,14.0,47.84626,-54.09684
2017-10-11 18:30:00+00:00,316.2397,12.4,14.0,47.84626,-54.09684
2017-10-11 18:40:00+00:00,309.058,12.4,13.84,47.84626,-54.09684
2017-10-11 18:50:00+00:00,302.9547,12.43,13.84,47.84626,-54.09684
2017-10-11 19:00:00+00:00,296.2063,12.44,13.6,47.84626,-54.09684
2017-10-11 19:10:00+00:00,285.5747,12.4,13.44,47.84626,-54.09684
2017-10-11 19:20:00+00:00,277.0381,12.4,13.53,47.84626,-54.09684
2017-10-11 19:30:00+00:00,272.3231,12.4,13.44,47.84626,-54.09684
2017-10-11 19:40:00+00:00,266.1031,12.4,13.37,47.84626,-54.09684
2017-10-11 19:50:00+00:00,255.5147,12.4,13.37,47.84626,-54.09684
2017-10-11 20:00:00+00:00,247.4182,12.42,13.29,47.84626,-54.09684
2017-10-11 20:10:00+00:00,245.3364,12.4,13.13,47.84626,-54.09684
2017-10-11 20:20:00+00:00,240.1497,12.4,13.21,47.84626,-54.09684
2017-10-11 20:30:00+00:00,232.3631,12.4,13.21,47.84626,-54.09684
2017-10-11 20:40:00+00:00,228.9447,12.4,13.21,47.84626,-54.09684
2017-10-11 20:50:00+00:00,232.0831,12.4,13.21,47.84626,-54.09684
2017-10-11 21:00:00+00:00,231.3531,12.4,13.13,47.84626,-54.09684
2017-10-11 21:10:00+00:00,231.1048,12.4,13.05,47.84626,-54.09684
2017-10-11 21:20:00+00:00,233.7964,12.4,13.13,47.84626,-54.09684
2017-10-11 21:30:00+00:00,236.4832,12.4,13.13,47.84626,-54.09684
2017-10-11 21:40:00+00:00,236.1365,12.4,13.13,47.84626,-54.09684
2017-10-11 21:50:00+00:00,237.7581,12.36,13.13,47.84626,-54.09684
2017-10-11 22:00:00+00:00,239.6214,12.37,13.05,47.84626,-54.09684
2017-10-11 22:10:00+00:00,240.6947,12.37,12.97,47.84626,-54.09684
2017-10-11 22:20:00+00:00,243.2248,12.38,13.05,47.84626,-54.09684
2017-10-11 22:30:00+00:00,243.9214,12.39,13.05,47.84626,-54.09684
2017-10-11 22:40:00+00:00,242.963,12.33,13.05,47.84626,-54.09684
2017-10-11 22:50:00+00:00,242.4697,12.3,13.05,47.84626,-54.09684
2017-10-11 23:00:00+00:00,243.7047,12.3,13.05,47.84626,-54.09684
2017-10-11 23:10:00+00:00,242.1664,12.3,12.97,47.84626,-54.09684
2017-10-11 23:20:00+00:00,240.0581,12.3,13.05,47.84626,-54.09684
2017-10-11 23:30:00+00:00,239.2281,12.3,13.05,47.84626,-54.09684
2017-10-11 23:40:00+00:00,238.7381,12.3,13.05,47.84626,-54.09684
2017-10-11 23:50:00+00:00,238.0247,12.3,13.05,47.84626,-54.09684
